Hof Plauen, Germany

9:09 AM CEST on April 27, 2018 (GMT +0200)
Hof-Plauen

Weather History for EDQM - June, 2013

Change the Weather History Date:

Friday, June 28, 2013

  Actual Average Record
Temperature  
Mean Temperature 53 °F -  
Max Temperature 62 °F 68 °F 80 °F (2005)
Min Temperature 44 °F 52 °F 35 °F (2000)
Degree Days  
Heating Degree Days 12    
Growing Degree Days 3 (Base 50)    
Moisture  
Dew Point 43 °F    
Average Humidity 65    
Maximum Humidity 89    
Minimum Humidity 40    
Precipitation  
Precipitation 0.00 in - - ()
Sea Level Pressure  
Sea Level Pressure 30.13 in    
Wind  
Wind Speed 6 mph ()    
Max Wind Speed 14 mph    
Max Gust Speed -    
Visibility 7.7 miles    
Events Rain    
Averages and records for this station are not official NWS values.
T = Trace of Precipitation, MM = Missing Value Source: Averaged Metar Reports

Daily Weather History Graph

Daily Weather History Graph

Search for Another Location

Airport or City:

Astronomy

Jun. 28, 2013 Rise Set
Actual Time 5:04 AM CEST 9:27 PM CEST
Civil Twilight 4:19 AM CEST 10:12 PM CEST
Nautical Twilight 3:12 AM CEST 11:18 PM CEST
Astronomical Twilight 1:48 AM CEST 12:43 AM CEST
Moon No Moon Rise 11:31 AM CEST (6/28)
Length of Visible Light 17h 53m
Length of Day
16h 23m
Waning Gibbous, 69% of the Moon is Illuminated
Jun 28
Waning Gibbous
Jun 30
Last Quarter
Jul 8
New
Jul 16
First Quarter
Jul 22
Full

Hourly Weather History & Observations

Time (CEST) Temp. Dew Point Humidity Pressure Visibility Wind Dir Wind Speed Gust Speed Precip Events Conditions
1:00 AM 48 °F 44 °F 83% 30.19 in 4 mi South 4.5 mph - -   Mist
2:00 AM 47 °F 44 °F 85% 30.19 in 3 mi South 4.5 mph - -   Mist
6:00 AM 46 °F 44 °F 89% 30.17 in 9 mi WSW 4.5 mph - -   Partly Cloudy
6:50 AM 53.6 °F 42.8 °F 67% 30.18 in 6.2 mi South 9.2 mph - N/A Rain Light Rain
7:00 AM 48 °F 45 °F 84% 30.17 in 7 mi SSW 4.5 mph - -   Mostly Cloudy
7:20 AM 50.0 °F 44.6 °F 82% 30.15 in 6.2 mi South 4.6 mph - N/A   Mostly Cloudy
7:50 AM 50.0 °F 44.6 °F 82% 30.15 in 6.2 mi South 5.8 mph - N/A   Mostly Cloudy
8:00 AM 48 °F 46 °F 88% 30.17 in 9 mi SSE 4.5 mph - -   Mostly Cloudy
8:20 AM 50.0 °F 44.6 °F 82% 30.15 in 6.2 mi South 5.8 mph - N/A   Mostly Cloudy
8:50 AM 50.0 °F 44.6 °F 82% 30.15 in 5.0 mi South 6.9 mph - N/A   Mostly Cloudy
9:00 AM 50 °F 46 °F 81% 30.16 in 11 mi South 4.5 mph - -   Mostly Cloudy
9:20 AM 53.6 °F 44.6 °F 72% 30.15 in 6.2 mi South 8.1 mph - N/A   Mostly Cloudy
9:50 AM 53.6 °F 44.6 °F 72% 30.15 in 6.2 mi SSW 8.1 mph - N/A   Mostly Cloudy
10:00 AM 54 °F 46 °F 65% 30.14 in 16 mi SSW 4.5 mph - -   Mostly Cloudy
10:20 AM 53.6 °F 41.0 °F 62% 30.15 in 6.2 mi SW 4.6 mph - N/A   Scattered Clouds
10:50 AM 55.4 °F 41.0 °F 58% 30.15 in 6.2 mi WSW 8.1 mph - N/A   Scattered Clouds
11:20 AM 55.4 °F 41.0 °F 58% 30.12 in 6.2 mi WSW 11.5 mph - N/A   Mostly Cloudy
11:50 AM 55.4 °F 42.8 °F 63% - 6.2 mi SSW 8.1 mph - N/A   Mostly Cloudy
12:00 PM 56 °F 44 °F 53% 30.12 in 19 mi SW 8.9 mph - -   Partly Cloudy
12:50 PM 55.4 °F 42.8 °F 63% 30.15 in 6.2 mi SW 8.1 mph - N/A   Mostly Cloudy
1:00 PM 56 °F 44 °F 55% 30.12 in 22 mi SSW 6.7 mph - -   Mostly Cloudy
1:20 PM 57.2 °F 41.0 °F 55% 30.12 in 6.2 mi West 6.9 mph - N/A   Mostly Cloudy
1:50 PM 57.2 °F 41.0 °F 55% 30.12 in 6.2 mi WSW 5.8 mph - N/A   Scattered Clouds
2:00 PM 58 °F 43 °F 46% 30.11 in 22 mi West 6.7 mph - -   Mostly Cloudy
2:20 PM 59.0 °F 39.2 °F 48% 30.12 in 6.2 mi WSW 8.1 mph - N/A   Partly Cloudy
2:50 PM 59.0 °F 39.2 °F 48% 30.12 in - SW 9.2 mph - N/A   Clear
3:00 PM 61 °F 43 °F 40% 30.09 in 22 mi WSW 8.9 mph - -   Partly Cloudy
3:20 PM 59.0 °F 41.0 °F 51% 30.12 in - WSW 13.8 mph - N/A   Clear
3:50 PM 60.8 °F 41.0 °F 48% 30.12 in - WSW 11.5 mph - N/A   Clear
4:20 PM 57.2 °F 39.2 °F 51% 30.12 in - WSW 11.5 mph - N/A   Clear
4:50 PM 60.8 °F 41.0 °F 48% 30.12 in - SW 9.2 mph - N/A   Clear
5:20 PM 60.8 °F 41.0 °F 48% 30.12 in - Variable 5.8 mph - N/A   Clear
5:50 PM 59.0 °F 41.0 °F 51% 30.12 in 6.2 mi WSW 11.5 mph - N/A   Scattered Clouds
6:00 PM 59 °F 42 °F 41% 30.08 in 25 mi West 6.7 mph - -   Mostly Cloudy
6:20 PM 55.4 °F 42.8 °F 63% 30.12 in 6.2 mi West 13.8 mph - N/A   Mostly Cloudy
6:50 PM 53.6 °F 44.6 °F 72% 30.12 in 6.2 mi WSW 11.5 mph - N/A Rain Light Rain Showers
7:00 PM 54 °F 46 °F 67% 30.11 in 19 mi WSW 6.7 mph - - Rain Light Rain Showers
7:20 PM 53.6 °F 44.6 °F 72% 30.12 in 6.2 mi West 4.6 mph - N/A   Mostly Cloudy
7:50 PM 53.6 °F 44.6 °F 72% 30.12 in - West 3.5 mph - N/A   Clear
8:00 PM 54 °F 46 °F 66% 30.11 in 28 mi West 4.5 mph - - Rain Light Rain Showers
9:00 PM 54 °F 47 °F 71% 30.11 in 25 mi SW 2.2 mph - -   Partly Cloudy
10:00 PM 53 °F 48 °F 76% 30.13 in 9 mi WSW 2.2 mph - -   Overcast